TimeCST,TemperatureF,Dew PointF,Humidity,Sea Level PressureIn,VisibilityMPH,Wind Direction,Wind SpeedMPH,Gust SpeedMPH,PrecipitationIn,Events,Conditions,WindDirDegrees,DateUTC
12:15 AM,36.5,32.0,84,29.85,7.0,SSE,10.4,-,N/A,,Overcast,160,2012-12-09 06:15:00
12:35 AM,36.5,32.4,85,29.85,7.0,SSE,8.1,-,N/A,,Overcast,160,2012-12-09 06:35:00
12:55 AM,36.5,32.4,85,29.85,7.0,South,9.2,-,N/A,,Overcast,170,2012-12-09 06:55:00
1:15 AM,36.5,32.4,85,29.85,7.0,South,6.9,-,N/A,,Overcast,170,2012-12-09 07:15:00
1:35 AM,36.3,32.5,86,29.85,7.0,South,8.1,-,N/A,,Overcast,170,2012-12-09 07:35:00
1:55 AM,36.5,32.5,86,29.85,7.0,South,6.9,-,N/A,,Overcast,170,2012-12-09 07:55:00
2:15 AM,36.5,32.7,86,29.86,7.0,South,4.6,-,N/A,,Overcast,170,2012-12-09 08:15:00
2:35 AM,36.5,32.9,87,29.85,7.0,SE,5.8,-,N/A,,Light Drizzle,140,2012-12-09 08:35:00
2:55 AM,36.1,32.9,88,29.83,5.0,SSE,6.9,-,N/A,,Mostly Cloudy,150,2012-12-09 08:55:00
3:15 AM,36.0,33.1,89,29.83,5.0,SSE,6.9,-,N/A,,Overcast,150,2012-12-09 09:15:00
3:35 AM,36.0,33.1,89,29.83,5.0,South,5.8,-,N/A,,Overcast,170,2012-12-09 09:35:00
3:55 AM,36.0,33.3,90,29.83,5.0,South,6.9,-,N/A,,Overcast,180,2012-12-09 09:55:00
4:15 AM,36.0,33.3,90,29.82,5.0,South,6.9,-,N/A,,Overcast,170,2012-12-09 10:15:00
4:35 AM,35.8,33.3,91,29.82,5.0,SSW,4.6,-,N/A,,Overcast,200,2012-12-09 10:35:00
4:55 AM,36.7,33.8,89,29.84,5.0,West,6.9,-,N/A,,Overcast,260,2012-12-09 10:55:00
5:15 AM,37.0,33.1,86,29.84,7.0,West,8.1,-,N/A,,Overcast,260,2012-12-09 11:15:00
5:35 AM,36.5,29.7,76,29.85,10.0,NW,13.8,18.4,N/A,,Overcast,310,2012-12-09 11:35:00
5:55 AM,35.2,28.9,78,29.86,10.0,NW,9.2,-,N/A,,Overcast,310,2012-12-09 11:55:00
6:15 AM,34.9,28.4,77,29.86,10.0,NW,9.2,-,N/A,,Overcast,310,2012-12-09 12:15:00
6:35 AM,34.7,28.2,77,29.87,10.0,WNW,10.4,-,N/A,,Overcast,290,2012-12-09 12:35:00
6:55 AM,34.2,26.8,74,29.89,10.0,WNW,17.3,23.0,N/A,,Mostly Cloudy,290,2012-12-09 12:55:00
7:15 AM,32.2,24.1,72,29.90,10.0,WNW,24.2,28.8,N/A,,Overcast,290,2012-12-09 13:15:00
7:35 AM,30.4,21.7,70,29.91,10.0,WNW,18.4,32.2,N/A,,Mostly Cloudy,290,2012-12-09 13:35:00
7:55 AM,28.2,19.2,69,29.94,10.0,WNW,23.0,27.6,N/A,,Scattered Clouds,290,2012-12-09 13:55:00
8:15 AM,26.4,16.5,66,29.94,10.0,NW,17.3,29.9,N/A,,Clear,320,2012-12-09 14:15:00
8:35 AM,25.7,16.0,67,29.94,10.0,WNW,18.4,26.5,N/A,,Clear,300,2012-12-09 14:35:00
8:55 AM,24.6,14.7,66,29.95,10.0,WNW,16.1,26.5,N/A,,Scattered Clouds,300,2012-12-09 14:55:00
9:15 AM,24.6,14.5,66,29.96,10.0,WNW,18.4,27.6,N/A,,Clear,300,2012-12-09 15:15:00
9:35 AM,24.6,13.6,63,29.96,10.0,WNW,25.3,32.2,N/A,,Clear,300,2012-12-09 15:35:00
9:55 AM,24.3,13.1,63,29.97,10.0,WNW,20.7,34.5,N/A,,Clear,300,2012-12-09 15:55:00
10:35 AM,25.9,12.9,58,29.99,10.0,WNW,20.7,27.6,N/A,,Clear,300,2012-12-09 16:35:00
10:55 AM,25.2,12.6,59,29.99,10.0,NW,23.0,31.1,N/A,,Clear,310,2012-12-09 16:55:00
11:15 AM,25.3,12.0,57,29.98,10.0,WNW,24.2,29.9,N/A,,Clear,300,2012-12-09 17:15:00
11:35 AM,26.6,12.6,55,29.98,10.0,WNW,26.5,34.5,N/A,,Clear,300,2012-12-09 17:35:00
11:55 AM,27.5,12.6,54,29.98,10.0,WNW,21.9,29.9,N/A,,Clear,300,2012-12-09 17:55:00
12:15 PM,26.2,12.2,55,29.98,10.0,NW,23.0,34.5,N/A,,Scattered Clouds,310,2012-12-09 18:15:00
12:35 PM,26.4,12.4,55,29.98,10.0,NW,20.7,31.1,N/A,,Mostly Cloudy,310,2012-12-09 18:35:00
12:55 PM,25.3,11.7,56,29.98,10.0,NW,27.6,33.4,N/A,,Overcast,310,2012-12-09 18:55:00
1:15 PM,25.0,11.1,56,29.99,10.0,WNW,26.5,36.8,N/A,,Overcast,300,2012-12-09 19:15:00
1:35 PM,25.3,10.4,53,29.99,10.0,NW,25.3,36.8,N/A,,Overcast,310,2012-12-09 19:35:00
1:55 PM,24.3,10.0,55,29.99,10.0,WNW,27.6,32.2,N/A,,Overcast,300,2012-12-09 19:55:00
2:15 PM,23.9,9.5,54,29.99,10.0,WNW,27.6,32.2,N/A,,Overcast,300,2012-12-09 20:15:00
2:35 PM,22.8,9.0,55,29.99,10.0,NW,23.0,35.7,N/A,,Overcast,310,2012-12-09 20:35:00
2:55 PM,22.1,9.1,58,30.02,10.0,NW,24.2,32.2,N/A,,Overcast,310,2012-12-09 20:55:00
3:15 PM,22.1,9.1,58,30.02,10.0,NW,25.3,33.4,N/A,,Overcast,320,2012-12-09 21:15:00
3:35 PM,21.9,9.1,58,30.03,10.0,NW,27.6,34.5,N/A,,Overcast,320,2012-12-09 21:35:00
3:55 PM,21.2,8.6,58,30.04,10.0,NW,20.7,34.5,N/A,,Overcast,320,2012-12-09 21:55:00
4:15 PM,20.7,8.8,60,30.05,10.0,NW,23.0,31.1,N/A,,Overcast,320,2012-12-09 22:15:00
4:35 PM,19.9,8.4,61,30.06,10.0,NW,23.0,32.2,N/A,,Overcast,320,2012-12-09 22:35:00
4:55 PM,19.4,8.2,62,30.06,10.0,NW,25.3,32.2,N/A,,Overcast,310,2012-12-09 22:55:00
5:15 PM,18.5,7.5,62,30.08,10.0,NW,26.5,36.8,N/A,,Overcast,320,2012-12-09 23:15:00
5:35 PM,18.5,7.7,63,30.08,10.0,NW,15.0,32.2,N/A,,Overcast,320,2012-12-09 23:35:00
5:55 PM,18.5,8.4,65,30.09,10.0,NW,28.8,35.7,N/A,,Overcast,310,2012-12-09 23:55:00
6:15 PM,18.3,7.9,64,30.09,10.0,NW,25.3,36.8,N/A,,Overcast,320,2012-12-10 00:15:00
6:35 PM,18.0,7.7,64,30.11,10.0,NNW,28.8,35.7,N/A,,Overcast,330,2012-12-10 00:35:00
6:55 PM,18.0,8.1,65,30.11,10.0,NW,25.3,32.2,N/A,,Overcast,320,2012-12-10 00:55:00
7:15 PM,17.4,7.3,65,30.12,10.0,NW,23.0,33.4,N/A,,Overcast,320,2012-12-10 01:15:00
7:35 PM,16.7,7.2,66,30.12,10.0,NNW,26.5,35.7,N/A,,Overcast,330,2012-12-10 01:35:00
7:55 PM,16.7,7.5,67,30.13,10.0,NW,19.6,31.1,N/A,,Overcast,320,2012-12-10 01:55:00
8:15 PM,16.3,6.8,66,30.13,10.0,NW,25.3,33.4,N/A,,Overcast,320,2012-12-10 02:15:00
8:35 PM,15.8,6.4,67,30.13,10.0,NW,25.3,35.7,N/A,,Overcast,320,2012-12-10 02:35:00
8:55 PM,15.8,6.8,68,30.14,10.0,NW,20.7,32.2,N/A,,Overcast,320,2012-12-10 02:55:00
9:15 PM,15.8,6.4,67,30.14,10.0,NW,21.9,33.4,N/A,,Overcast,320,2012-12-10 03:15:00
9:35 PM,15.8,6.3,66,30.13,10.0,NW,19.6,32.2,N/A,,Overcast,320,2012-12-10 03:35:00
9:55 PM,16.2,5.7,64,30.12,10.0,NW,27.6,33.4,N/A,,Overcast,320,2012-12-10 03:55:00
10:15 PM,16.2,5.0,62,30.12,10.0,NNW,24.2,33.4,N/A,,Overcast,330,2012-12-10 04:15:00
10:35 PM,15.8,4.1,60,30.12,10.0,NW,21.9,36.8,N/A,,Overcast,320,2012-12-10 04:35:00
10:55 PM,15.8,4.1,60,30.13,10.0,NNW,18.4,29.9,N/A,,Overcast,330,2012-12-10 04:55:00
11:15 PM,15.8,3.9,60,30.12,10.0,NNW,21.9,29.9,N/A,,Overcast,330,2012-12-10 05:15:00
11:35 PM,15.1,3.6,60,30.12,10.0,NNW,16.1,26.5,N/A,,Overcast,330,2012-12-10 05:35:00
11:55 PM,14.5,3.2,61,30.12,10.0,NW,20.7,29.9,N/A,,Overcast,320,2012-12-10 05:55:00